Погода в Хвалынске

Погода в Хвалынске : погода сейчас, прогноз погоды и архив. Всё, что Вы хотите узнать о погоде в Хвалынске!

Поиск расширенной информации на нашем сайте:

Другие новости

Новости СМИ2

Главная страница сайта

Новости сайта

02.10.2013

Напоминаем, что на нашем новом сайте вы можете получить высокодетализированные прогнозы погоды по пунктам России, СНГ и мира (включающие важные для авиации метеовеличины, такие как направление и скорость ветра, видимость, явления погоды, количество и форма облачности, нижняя и верхняя граница облачности), а также ознакомиться с разнообразными материалами по авиационной метеорологии и подборкой полезных ссылок на эту тему.

Сайт Метеоцентр.Азия посвящён разработке технологий оптимизации авиаметеорологического обслуживания, включая проектирование и перспективное создание нескольких автоматизированных авиаметеорологических систем:
- система выпуска высокодетальных прогностических карт явлений погоды для нижнего воздушного пространства по России и ближнему зарубежью;
- система верификации прогнозов TAF (выпускаемых синоптиками официальных АМСГ РФ и ближнего зарубежья) и AUTOTAF (выпускаемых сайтом Метеоцентр.Азия) - выявление ошибок, онлайн-сопоставление с фактической погодой METAR, автоматическое внесение коррективов в прогнозы при резком отклонении фактической погоды от прогноза, подсчёт оправдываемости прогнозов по элементам и в целом;
- система обработки, анализа и отображения авиаметеорологической информации для применения провайдерами метеорологической информации.

Рекомендуем: Подшипники роликовые в кахастане: покупка роликовых подшипников podshipnik-rti.kz.

Погода в Хвалынске - сегодня

Время (UTC), дата Ветер
(°,м/с) 
Видим.   Явления Облачность Т
(°С)
Тd
(°С)
f(%) Тe
(°С)
Pmin
(гПа)
dP
(гПа)
Po
(мм)
O2
(г/м3)
Тmin Tmax R s Состояние
почвы
00 25.05.17 100 (В) 20000 м    ясно 
+13.9 +8.3 69 +15  1014.1  -0.3  755  288           
03 25.05.17 320 (СЗ) 20000 м    1/1 600 м 
[Sc]
+14.5 +10.3 76 +17  1014.6  0.5  755  287  +12.1        сухая 
06 25.05.17 050 (СВ) 20000 м    ясно 
+17.9 +10.8 63 +21  1015.2  0.7  756  284           
09 25.05.17 150 (ЮВ) 20000 м    4/4 1000 м 
[Cu Sc]
+23.9 +10.3 42 +25  1014.3  -0.7  755  278           
12 25.05.17 170 (Ю) 4{10}  20000 м    4/4 1000 м 
[Sc diur, vesp]
+23.3 +7.4 36 +23  1013.3  -1  754  279           
15 25.05.17 180 (Ю) 20000 м    6/3 1000 м верхняя 
[Sc diur, vesp|Ci fib]
+22.8 +8.9 41 +23  1012.6  -0.7  754  279    +24.9       
18 25.05.17 220 (ЮЗ) 20000 м    10/3 1000 м средняя, верхняя 
[Sc diur, vesp|Ac cuf|Ci fib]
+19.9 +8.1 46 +21  1013.3  0.6  754  282           
21 25.05.17 250 (З) 24000 м    ясно 
+17.5 +8.6 56 +18  1013.1  -0.3  754  284           
00 26.05.17 180 (Ю) 20000 м    3/0 средняя, верхняя 
[Ac lent|Ci sp]
+13.5 +9.1 75 +14  1013.2  754  288           
03 26.05.17 тихо ()   20000 м    3/0 верхняя 
[Ci fib]
+15.8 +10.6 71 +18  1012.7  -0.4  754  285  +12.9        сухая 
06 26.05.17 050 (СВ) 20000 м    10/3 1000 м верхняя 
[Cu hum|Ci fib]
+17.6 +10.7 64 +21  1012.7  754  283           
09 26.05.17 150 (ЮВ) 20000 м    10/6 1000 м верхняя 
[Cu Sc|Ci fib]
+23.5 +5.5 31 +24  1011.7  -0.9  753  279           
12 26.05.17 160 (Ю) 20000 м    10/4 1000 м верхняя 
[Sc diur, vesp|Ci fib]
+23.4 +6 32 +23  1009.8  -1.8  752  278           
15 26.05.17 180 (Ю) 5{11}  20000 м    10/3 1000 м средняя, верхняя 
[Sc diur, vesp|Ac cuf|Ci fib]
+20.4 +8.4 46 +20  1008.8  -1.1  751  280    +24       
18 26.05.17 200 (Ю) 20000 м    10/0 средняя, верхняя 
[Ac cuf|Ci fib]
+15.6 +8.2 61 +17  1008.8  0.1  751  285           
21 26.05.17 240 (ЮЗ) 19000 м    10/0 средняя 
[Ac und]
+13.9 +8.2 68 +15  1007.8  -1.1  750  286           
00 27.05.17 тихо ()   20000 м    6/0 средняя 
[Ac As]
+13.5 +8.8 73 +14  1006.9  -0.9  749  286           
03 27.05.17 300 (СЗ) 20000 м    10/4 1000 м средняя, верхняя 
[Sc|Ac As|Ci fib]
+13.4 +10.6 83 +16  1006.7  -0.2  749  286  +12.5        сухая 
06 27.05.17 190 (Ю) 20000 м    10/0 средняя, верхняя 
[Ac cuf|Ci fib]
+19.7 +10.9 57 +23  1005.9  -0.6  749  279           
09 27.05.17 240 (ЮЗ) 20000 м  осадки на расстоянии  8/4 600 м кучево-дожд., средняя, верхняя 
[Cb cap|Ac cuf|Ci fib]
+24 +9.5 40 +25  1005  -0.8  748  275           
15 27.05.17 260 (З) 6-14{12}  20000 м  слаб. ливневой дождь{гроза}  10/6 600 м кучево-дожд., средняя 
[Cb cap|Ac cuf]
+16.6 +10.8 69 +18  1004.5  0.4  748  282    +25.7     
03 28.05.17 350 (С) 20000 м    3/0 верхняя 
[Ci sp]
+11.8 +5 63 +12  1008.8  1.2  751  289  +9.5      влажная 
06 28.05.17 080 (В) 20000 м    3/1 1000 м верхняя 
[Cu hum|Ci sp]
+13.4 +4.1 53 +14  1008.8  0.1  751  288           
15 28.05.17 340 (С) 4{13}  10 км  слаб. ливневой дождь  10/10 960 м кучево-дожд. 
[Cb cap]
+7.5 +5.9 90 +6  1006.5  0.9  749  293    +17.8     
03 29.05.17 320 (СЗ) 5{12}  20000 м    ясно 
+4.7 -2.1 61 +3  1014.8  755  299  +1.7      влажная 
Время (UTC), дата Ветер
(°,м/с) 
Видим.   Явления Облачность Т
(°С)
Тd
(°С)
f(%) Тe
(°С)
Pmin
(гПа)
dP
(гПа)
Po
(мм)
O2
(г/м3)
Тmin Tmax R s Состояние
почвы

Для получения пояснительной информации подведите курсор к названию столбца.

ПОГОДА в Хвалынске - архив

Всё, что Вы хотите узнать о погоде в Хвалынске - удобно и подробно!

Выберите нужную дату (начиная с 1 января 2015* года) и нажмите кнопку "Найти".
Будут отображены архивные сводки погоды по пункту Хвалынск, начиная с указанной даты.


Отображать данные в формате CSV (для использования в таблицах Excel)


Внимание! Наш архив погоды предназначен исключительно для личного некоммерческого использования в познавательных целях. Если Вам необходимы официальные справки о состоянии погоды (для производственных, юридических, коммерческих и т.п. целей), обращайтесь в органы Росгидромета.

*Примечание: данная дата относится к архиву по метеостанциям СССР (Россия, СНГ, Балтия).
Архив по метеостанциям Зарубежной Европы и Азии (кроме Китая) хранится 10 дней, по другим регионам земного шара (Китай, Африка, Америка, Австралия, Океания) - 1 день.

Хвалынск - район местоположения метеостанции


Название, широта, долгота, высота метеостанции:
Хвалынск 52.5°ш. 48.1°д. 88 м над ур. моря [Российская Федерация]

Дополнительная информация

В oтличие oт бoльшинства пoгoдных сайтoв мы публикуем пoдрoбную метеoинфoрмацию в детальнoм прoфессиoнальнoм фoрмате.

Характеристики температуры и влажнoсти вoздуха измеряются на высoте 2 м в тени вдали oт зданий и деревьев.
Скoрoсть ветра измеряется на высoте 10 м (на урoвне рoста челoвека скoрoсть ветра ниже в 1.5-2 раза). Если метеoстанция нахoдится в гoрoде или в лесу, тo скoрoсть ветра занижена на 2-4 м/с пo сравнению с oткрытым местoм. Скoрoсть ветра над акватoриями крупных рек и oзёр, а также на вершинах хoлмoв на 2-5 м/с выше, чем в oбычных услoвиях.
Атмoсфернoе давление в разных тoчках местнoсти мoжет значительнo oтличаться oт давления на метеoстанции, в зависимoсти oт услoвий рельефа (при пoдъёме на 10 м давление пoнижается примернo на 1 мм рт.ст.).